POPACS 2

Last updated on Sun Dec 14 2025 00:03:49 GMT+0000 (Coordinated Universal Time)

1 39269U 13055E 25347.30309553 .00026492 00000+0 47796-3 0 9990 2 39269 80.9946 355.8913 0448108 68.2413 296.5857 14.83441923635577
UTC large
Height (km)
Speed (km/s)
/
Latitude / Longitude
Inclination (degrees)
Orbital Period (minutes)
Azimuth
Elevation
Range (km)
Doppler Factor

Next 0 passes for location: London (51.5072 / 0.1276)

Sorry there are no passes over London.